Regional Weather Roundup
Issued by NWS

Home | Current Version | Previous Version | Graphics & Text | Print | Product List | Glossary On
Versions: 1 2 3 4 5 6 7 8 9 10 11 12 13 14 15 16 17 18 19 20 21 22 23 24 25 26 27 28 29 30 31 32 33 34 35 36 37 38 39 40 41 42 43 44 45 46 47 48 49 50
000
ASUS45 KBOI 060510
RWRID
WEATHER ROUNDUP FOR IDAHO
NATIONAL WEATHER SERVICE BOISE ID
1000 PM MST THU MAR 05 2015

NOTE: "FAIR" INDICATES FEW OR NO CLOUDS BELOW 12000 FEET
WITH NO SIGNIFICANT WEATHER AND/OR OBSTRUCTIONS TO VISIBILITY

IDZ012-014-060600-
SOUTHWEST IDAHO


CITY           SKY/WX    TMP DP  RH WIND       PRES   REMARKS
BOISE          PTCLDY    39  22  50 SE6       30.36R WCI  35
CALDWELL       PTCLDY    39  19  45 CALM      30.38S
MOUNTAIN HOME  PTCLDY    36  18  48 NE6       30.35S WCI  31
$$

IDZ016-017-060600-
SOUTHCENTRAL IDAHO


CITY           SKY/WX    TMP DP  RH WIND       PRES   REMARKS
BURLEY         MOCLDY    37  15  40 SW13      30.34R WCI  29
JEROME         PTCLDY    40  17  39 SE6       30.36R
TWIN FALLS     PTCLDY    39  17  41 S13       30.35R WCI  31
$$

IDZ019>023-060600-
SOUTHEAST IDAHO


CITY           SKY/WX    TMP DP  RH WIND       PRES   REMARKS
IDAHO FALLS    MOCLDY    36  19  50 SW6       30.36R WCI  31
POCATELLO      CLEAR     40  18  41 S12       30.36R WCI  33
REXBURG        MOCLDY    28  23  81 NE3       30.35S
$$

IDZ006-010-011-018-031-032-060600-
CENTRAL IDAHO MOUNTAINS


CITY           SKY/WX    TMP DP  RH WIND       PRES   REMARKS
MCCALL         PTCLDY    28  18  66 CALM      30.35R
HAILEY         PTCLDY    32  21  64 NW9       30.36R WCI  24
STANLEY          N/A     23   9  55 S5        30.38R WCI  17
SALMON         CLEAR     28  16  59 CALM      30.32R
CHALLIS        PTCLDY    34  11  38 W3        30.32R
$$

IDZ002-004-006-007-026-060600-
NORTHERN IDAHO


CITY           SKY/WX    TMP DP  RH WIND       PRES   REMARKS
LEWISTON       PTCLDY    38  27  64 SE3       30.35R
LOWELL           N/A     32  26  78 N3        30.40R
COEUR D`ALENE  CLEAR     34  23  64 CALM      30.32R
MULLAN PASS    CLEAR     29  14  53 VRB3      30.27S
$$


USA.gov is the U.S. government's official web portal to all federal, state and local government web resources and services.